OpenBCM V1.13 (Linux)

Packet Radio Mailbox

DB0FHN

[JN59NK Nuernberg]

 Login: GUEST





  
F1EBE  > KEPS     09.03.03 10:53l 105 Lines 5488 Bytes #999 (0) @ AMSAT
BID : 23996_F8KOH
Read: DB0FHN GUEST
Subj: 2Line Orbital Elements 03066.AMSAT
Path: DB0FHN<DB0RGB<DB0FSG<DB0SIF<DB0AIS<DB0NDK<DB0ACH<ON0RAT<ON5VL<ON0BEL<
      HA3PG<IK1ZNW<7M3TJZ<F6CDD<F6KBI<F4CEP<F1HCI<F6KDS<F5KCK<F8KAE<F8KOH
Sent: 030308/0835Z @:F8KOH.FNOR.FRA.EU #:23996 [Vernon] FBB7.00i $:23996_F8KOH
From: F1EBE@F8KOH.FNOR.FRA.EU
To  : KEPS@AMSAT


AO-7                    
1 07530U 74089B   03065.65300847 -.00000029  00000-0  10000-3 0  1886
2 07530 101.7572 113.2879 0012272  46.9878 313.2217 12.53564643295203
AO-10                   
1 14129U 83058B   03053.29347507 -.00000135  00000-0  10000-3 0  9207
2 14129  25.9661 163.6642 6025305 329.8586   6.1874  2.05867335120141
UO-11                   
1 14781U 84021B   03066.53604112  .00001743  00000-0  24859-3 0   899
2 14781  98.1190  40.5924 0009662 148.9417 211.2366 14.78043941 18744
UO-14                   
1 20437U 90005B   03066.55673417  .00000146  00000-0  70766-4 0  1806
2 20437  98.2685 109.3556 0011026 146.5647 213.6252 14.31243244684926
AO-16                   
1 20439U 90005D   03065.59027133  .00000192  00000-0  87671-4 0  8620
2 20439  98.3140 120.2137 0011183 156.5579 203.6136 14.31478118684820
DO-17                   
1 20440U 90005E   03065.71584149  .00000159  00000-0  75256-4 0  7427
2 20440  98.3355 124.2646 0010998 154.7572 205.4154 14.31756074684915
WO-18                   
1 20441U 90005F   03065.91962412  .00000155  00000-0  73700-4 0   301
2 20441  98.3306 123.6598 0011913 155.4369 204.7384 14.31559305684927
LO-19                   
1 20442U 90005G   03065.68652224  .00000153  00000-0  73072-4 0  9784
2 20442  98.3442 126.4894 0011895 155.3055 204.8700 14.31722566684945
FO-20                   
1 20480U 90013C   03065.91668558 -.00000001  00000-0  77425-4 0  4681
2 20480  99.0482  25.5865 0540317 326.8836  29.9487 12.83330890612617
RS-12/13                
1 21089U 91007A   03065.77501658  .00000063  00000-0  51303-4 0  4956
2 21089  82.9247 169.3595 0027599 241.1551 118.6834 13.74405891606019
UO-22                   
1 21575U 91050B   03066.19393404  .00000311  00000-0  11370-3 0  7429
2 21575  98.1425  57.4789 0008590  82.6830 277.5338 14.39165251610672
KO-23                   
1 22077U 92052B   03065.89378960 -.00000037  00000-0  10000-3 0  1751
2 22077  66.0859  91.5410 0015756 269.9397  89.9819 12.86409026496408
AO-27                   
1 22825U 93061C   03066.20770285  .00000143  00000-0  72843-4 0  5020
2 22825  98.2725  95.0560 0007977 204.2401 155.8408 14.28948617492255
IO-26                   
1 22826U 93061D   03065.88532863  .00000158  00000-0  78459-4 0  3430
2 22826  98.2713  95.8703 0008101 208.0728 152.0020 14.29172029492250
KO-25                   
1 22828U 93061F   03065.65178026  .00000118  00000-0  62172-4 0  4414
2 22828  98.2706  95.9156 0009424 185.3560 174.7523 14.29512808460423
POSAT                   
1 22829U 93061G   03066.14790087  .00000216  00000-0  10004-3 0  4670
2 22829  98.2715  97.0003 0009276 184.5265 175.5835 14.29776099492420
RS-15                   
1 23439U 94085A   03065.96770777 -.00000039  00000-0  98308-4 0  7028
2 23439  64.8184  14.9617 0146557 111.9084 249.7486 11.27547782337449
FO-29                   
1 24278U 96046B   03065.88644045  .00000031  00000-0  66987-4 0  5834
2 24278  98.5406 214.8948 0350636 174.0734 186.4707 13.52873912323510
TO-31                   
1 25396U 98043C   03065.98332318 -.00000043  00000-0  00000-0 0  8773
2 25396  98.6238 142.7644 0003744  90.6315 269.5297 14.23515456241860
GO-32                   
1 25397U 98043D   03065.94120956  .00000070  00000-0  50507-4 0  1585
2 25397  98.6195 141.5845 0002170  92.5413 267.6012 14.22963145241826
SO-33                   
1 25509U 98061B   03066.15748924  .00000618  00000-0  11419-3 0  7958
2 25509  31.4296  59.4814 0357070  87.7174 276.4274 14.27453048227680
PO-34                   
1 25520U 98064B   03065.51255108  .00003242  00000-0  16387-3 0  6459
2 25520  28.4585 117.6462 0006003 163.6528 196.4292 15.13960137240000
ISS             
1 25544U 98067A   03066.77426542  .00032290  00000-0  40514-3 0  7566
2 25544  51.6356 169.5924 0011782 288.7171 209.5152 15.59349992245187
UO-36                   
1 25693U 99021A   03066.48413100  .00000839  00000-0  13978-3 0  7654
2 25693  64.5609 319.0139 0021757 314.8544  45.0791 14.76410375208750
OO-38                   
1 26063U 00004C   03065.72585034  .00000137  00000-0  67581-4 0  7359
2 26063 100.2064 123.2313 0036684 241.3879 118.3608 14.35487186162708
SO-41                   
1 26545U 00057A   03065.63858167  .00001695  00000-0  24310-3 0  4238
2 26545  64.5610 342.5319 0051014 236.1583 123.4681 14.79023711131603
MO-46                   
1 26548U 00057D   03065.29865034  .00002122  00000-0  28507-3 0  4276
2 26548  64.5597 336.2910 0044356 235.5342 124.1571 14.81323230131703
SO-42                   
1 26549U 00057E   03065.88921692  .00001307  00000-0  19603-3 0  7099
2 26549  64.5509 345.9564 0055533 235.9726 123.6106 14.77957191131553
AO-40                   
1 26609U 00072B   03066.11783278 -.00000244  00000-0  10000-3 0  3140
2 26609   8.2200  61.4070 7949170 150.5515 300.1580  1.25596136 10796
PCsat                   
1 26931U 01043C   03065.97144722  .00000240  00000-0  12695-3 0  4536
2 26931  67.0463 213.3841 0005179 270.2506  89.8002 14.29123613 74690
NO-45                   
1 26932U 01043D   03065.94745844  .00000116  00000-0  78130-4 0  4388
2 26932  67.0527 213.1469 0004357 246.7913 113.2729 14.29299970 74714
AO-49                   
1 27605U 02058A   03065.68818420  .00000730  00000-0  13812-3 0   782
2 27605  64.5520 148.2900 0035619 106.7419 253.7602 14.71395619 11182
SO-50                   
1 27607U 02058C   03065.69870844  .00001099  00000-0  20318-3 0   703
2 27607  64.5510 148.8125 0036603 102.4290 258.0918 14.69938056 11174



Read previous mail | Read next mail


 15.09.2026 08:08:06lGo back Go up